Regional Weather Roundup
Issued by NWS

Home | Current Version | Previous Version | Text Only | Print | Product List | Glossary On
Versions: 1 2 3 4 5 6 7 8 9 10 11 12 13 14 15 16 17 18 19 20 21 22 23 24 25 26 27 28 29 30 31 32 33 34 35 36 37 38 39 40 41 42 43 44 45 46 47
000
ASUS45 KSLC 211410
RWRUT

UTAH REGIONAL WEATHER ROUNDUP
NATIONAL WEATHER SERVICE SALT LAKE CITY UT
800 AM MDT SUN SEP 21 2014

UTZ001>011-023>025-211500-

NORTHERN UTAH

CITY           SKY/WX    TMP DP  RH WIND       PRES   REMARKS
HILL AFB       CLOUDY    65  38  37 E12       30.16F
LOGAN          MOCLDY    68  45  43 E15       30.16S
OGDEN          CLOUDY    65  42  43 S5        30.14F
PROVO AIRPORT  LGT RAIN  61  55  82 SE3       30.20R
SALT LAKE CITY CLOUDY    69  50  50 S8        30.12S
VERNAL         CLOUDY    59  40  49 NE7       30.25R
WENDOVER       CLOUDY    64  55  72 E5        30.16R
HEBER CITY     RAIN      55  45  67 E5        30.25R
WEST JORDAN    CLOUDY    64  55  72 S8        30.17R

$$

UTZ012>022-026-027-211500-

SOUTHERN UTAH

CITY           SKY/WX    TMP DP  RH WIND       PRES   REMARKS
BRYCE CANYON   RAIN      52  51  97 NW6       30.33R FOG
CEDAR CITY     RAIN      56  54  93 SW7       30.24R FOG
MILFORD        RAIN      60  58  92 NW3       30.19R FOG
MOAB/CYNLANDS  PTCLDY    74  50  42 NE8       30.14R
PRICE          CLOUDY    61  53  75 W5        30.25R
ST GEORGE      CLOUDY    66  61  82 SE5       30.08R
KANAB          CLOUDY    61  61 100 NW8       30.21R

$$

REGIONAL REPORTS     COLORADO/ARIZONA

CITY           SKY/WX    TMP DP  RH WIND       PRES   REMARKS
CRAIG, CO      PTSUNNY   44  37  76 SE3       30.33R
GRAND JUNCTION LGT RAIN  62  55  77 S16G24    30.28R
RIFLE          CLOUDY    57  46  66 CALM      30.29R
MONTROSE       LGT RAIN  59  55  87 S8        30.39R
CORTEZ         MOSUNNY   59  57  93 CALM      30.30S
PAGE, AZ       MOCLDY    67  58  72 SW5       30.14R
GRAND CANYON   MOCLDY    57  54  89 SE3       30.28R
KINGMAN        MOCLDY    74  54  49 CALM      30.05R
FLAGSTAFF      PTCLDY    53  50  89 CALM      30.32R

$$

REGIONAL REPORTS    NEVADA/IDAHO/WYOMING

CITY           SKY/WX    TMP DP  RH WIND       PRES   REMARKS
LAS VEGAS, NV  MOCLDY    75  59  57 CALM      29.96R
ELY            CLOUDY    53  50  89 CALM      30.23F
ELKO           LGT RAIN  59  51  75 CALM      30.19R
POCATELLO, ID  CLEAR     50  45  83 CALM      30.14R
BURLEY         CLOUDY    52  47  83 CALM      30.10R
EVANSTON, WY   CLOUDY    51  39  63 E6        30.36S
ROCK SPRINGS   PTCLDY    51  36  56 E9        30.37R

$$



USA.gov is the U.S. government's official web portal to all federal, state and local government web resources and services.